Location: Unspecified
(0.0000°N, 0.0000°E)
Time: 20:24:08
(UTC+00:00)

RS-8 - Pass Details

Date: 07 October 2022
Orbit: 1579 x 1660 km, 83.0° (Epoch: 05 December)

Event Time Altitude Azimuth Distance (km) Brightness Sun altitude
Rises 20:56:44 0° 195° (SSW) 4,771 10.8 -46.9°
Reaches altitude 10° 20:59:47 10° 200° (SSW) 3,782 10.2 -47.7°
Enters shadow 21:04:15 31° 216° (SW) 2,504 9.2 -48.8°
